Time,TemperatureF,DewpointF,PressureIn,WindDirection,WindDirectionDegrees,WindSpeedMPH,WindSpeedGustMPH,Humidity,HourlyPrecipIn,Conditions,Clouds,dailyrainin,SoftwareType,DateUTC
2013-10-27 00:13:00,60.0,59.0,30.14,South,175,0.0,0.0,95,0.00,,,0.00,,2013-10-27 05:13:00,
2013-10-27 00:23:00,59.0,58.0,30.13,South,175,0.0,0.0,95,0.00,,,0.00,,2013-10-27 05:23:00,
2013-10-27 00:43:00,59.0,58.0,30.13,South,175,0.0,0.0,95,0.00,,,0.00,,2013-10-27 05:43:00,
2013-10-27 00:52:00,59.0,58.0,30.12,South,175,0.0,0.0,95,0.00,,,0.00,,2013-10-27 05:52:00,
2013-10-27 01:13:00,59.0,58.0,30.12,South,175,0.0,0.0,96,0.00,,,0.00,,2013-10-27 06:13:00,
2013-10-27 01:22:00,59.0,58.0,30.11,South,175,0.0,0.0,96,0.00,,,0.00,,2013-10-27 06:22:00,
2013-10-27 01:42:00,59.0,58.0,30.10,South,175,0.0,0.0,96,0.00,,,0.00,,2013-10-27 06:42:00,
2013-10-27 01:53:00,59.0,58.0,30.10,South,175,0.0,0.0,96,0.00,,,0.00,,2013-10-27 06:53:00,
2013-10-27 02:12:00,59.0,58.0,30.10,South,175,0.0,0.0,97,0.00,,,0.00,,2013-10-27 07:12:00,
2013-10-27 02:22:00,59.0,58.0,30.09,South,175,0.0,0.0,97,0.00,,,0.00,,2013-10-27 07:22:00,
2013-10-27 02:42:00,59.0,58.0,30.10,South,175,0.0,0.0,97,0.00,,,0.00,,2013-10-27 07:42:00,
2013-10-27 02:52:00,60.0,59.0,30.10,South,175,0.0,0.0,97,0.00,,,0.00,,2013-10-27 07:52:00,
2013-10-27 03:11:00,60.0,59.0,30.10,South,175,0.0,0.0,98,0.00,,,0.00,,2013-10-27 08:11:00,
2013-10-27 03:22:00,61.0,60.0,30.11,South,175,0.0,0.0,98,0.00,,,0.00,,2013-10-27 08:22:00,
2013-10-27 03:42:00,61.0,60.0,30.11,South,175,0.0,0.0,98,0.00,,,0.00,,2013-10-27 08:42:00,
2013-10-27 03:52:00,63.0,62.0,30.11,East,80,0.0,0.0,98,0.00,,,0.00,,2013-10-27 08:52:00,
2013-10-27 04:12:00,63.0,62.0,30.11,WSW,255,0.0,0.0,98,0.00,,,0.00,,2013-10-27 09:12:00,
2013-10-27 04:21:00,63.0,63.0,30.10,WSW,255,0.0,0.0,99,0.00,,,0.00,,2013-10-27 09:21:00,
2013-10-27 04:43:00,63.0,63.0,30.09,WSW,255,0.0,0.0,99,0.00,,,0.00,,2013-10-27 09:43:00,
2013-10-27 04:54:00,63.0,63.0,30.10,WSW,255,0.0,0.0,99,0.00,,,0.00,,2013-10-27 09:54:00,
2013-10-27 05:12:00,63.0,63.0,30.10,WSW,255,0.0,0.0,99,0.00,,,0.00,,2013-10-27 10:12:00,
2013-10-27 05:23:00,64.0,64.0,30.09,WSW,255,0.0,0.0,99,0.00,,,0.00,,2013-10-27 10:23:00,
2013-10-27 05:42:00,64.0,64.0,30.09,WSW,255,0.0,1.0,99,0.00,,,0.00,,2013-10-27 10:42:00,
2013-10-27 05:53:00,64.0,64.0,30.09,West,271,0.0,0.0,99,0.00,,,0.00,,2013-10-27 10:53:00,
2013-10-27 06:12:00,64.0,64.0,30.09,West,271,0.0,0.0,99,0.00,,,0.00,,2013-10-27 11:12:00,
2013-10-27 06:22:00,64.0,64.0,30.10,West,271,0.0,0.0,99,0.00,,,0.00,,2013-10-27 11:22:00,
2013-10-27 06:42:00,64.0,64.0,30.10,West,271,0.0,0.0,99,0.00,,,0.00,,2013-10-27 11:42:00,
2013-10-27 06:52:00,63.0,63.0,30.11,West,271,0.0,0.0,99,0.02,,,0.02,,2013-10-27 11:52:00,
2013-10-27 07:12:00,63.0,63.0,30.12,West,262,0.0,0.0,99,0.05,,,0.05,,2013-10-27 12:12:00,
2013-10-27 07:22:00,62.0,62.0,30.10,NNE,25,0.0,1.0,99,0.12,,,0.12,,2013-10-27 12:22:00,
2013-10-27 07:42:00,62.0,62.0,30.11,NNE,25,0.0,1.0,99,0.14,,,0.14,,2013-10-27 12:42:00,
2013-10-27 07:52:00,61.0,61.0,30.12,NNE,25,0.0,0.0,99,0.14,,,0.16,,2013-10-27 12:52:00,
2013-10-27 08:12:00,61.0,61.0,30.12,NNE,25,0.0,0.0,99,0.13,,,0.18,,2013-10-27 13:12:00,
2013-10-27 08:21:00,61.0,61.0,30.13,NNE,25,0.0,0.0,99,0.10,,,0.22,,2013-10-27 13:21:00,
2013-10-27 08:42:00,61.0,61.0,30.13,NNE,25,0.0,0.0,99,0.10,,,0.24,,2013-10-27 13:42:00,
2013-10-27 08:52:00,61.0,61.0,30.13,NNE,25,0.0,0.0,99,0.12,,,0.28,,2013-10-27 13:52:00,
2013-10-27 09:11:00,61.0,61.0,30.12,NNE,25,0.0,0.0,99,0.12,,,0.30,,2013-10-27 14:11:00,
2013-10-27 09:22:00,61.0,61.0,30.10,NNE,26,0.0,1.0,99,0.13,,,0.35,,2013-10-27 14:22:00,
2013-10-27 09:42:00,61.0,61.0,30.11,ESE,113,0.0,0.0,99,0.12,,,0.36,,2013-10-27 14:42:00,
2013-10-27 09:52:00,61.0,61.0,30.09,ESE,113,0.0,1.0,99,0.10,,,0.38,,2013-10-27 14:52:00,
2013-10-27 10:11:00,61.0,61.0,30.09,ESE,113,0.0,1.0,99,0.09,,,0.39,,2013-10-27 15:11:00,
2013-10-27 10:22:00,62.0,62.0,30.07,SSE,153,0.0,1.0,99,0.05,,,0.40,,2013-10-27 15:22:00,
2013-10-27 10:44:00,63.0,63.0,30.06,ESE,123,0.0,1.0,100,0.04,,,0.40,,2013-10-27 15:44:00,
2013-10-27 10:54:00,64.0,64.0,30.06,SE,137,0.0,2.0,99,0.02,,,0.40,,2013-10-27 15:54:00,
2013-10-27 11:13:00,65.0,65.0,30.08,SE,142,0.0,4.0,100,0.01,,,0.40,,2013-10-27 16:13:00,
2013-10-27 11:24:00,65.0,65.0,30.08,ESE,117,0.0,1.0,99,0.00,,,0.40,,2013-10-27 16:24:00,
2013-10-27 11:43:00,65.0,65.0,30.07,SSE,158,0.0,2.0,100,0.00,,,0.40,,2013-10-27 16:43:00,
2013-10-27 11:53:00,66.0,66.0,30.07,SE,144,0.0,1.0,100,0.00,,,0.40,,2013-10-27 16:53:00,
2013-10-27 12:13:00,67.0,67.0,30.08,SE,144,0.0,1.0,100,0.00,,,0.40,,2013-10-27 17:13:00,
2013-10-27 12:22:00,68.0,68.0,30.09,SSE,167,0.0,0.0,100,0.00,,,0.40,,2013-10-27 17:22:00,
2013-10-27 12:43:00,69.0,69.0,30.09,SSE,167,0.0,0.0,100,0.00,,,0.40,,2013-10-27 17:43:00,
2013-10-27 12:53:00,69.0,69.0,30.08,SE,140,0.0,2.0,100,0.00,,,0.40,,2013-10-27 17:53:00,
2013-10-27 13:12:00,70.0,70.0,30.08,SE,141,0.0,1.0,100,0.00,,,0.40,,2013-10-27 18:12:00,
2013-10-27 13:22:00,71.0,71.0,30.08,SSW,197,0.0,1.0,100,0.00,,,0.40,,2013-10-27 18:22:00,
2013-10-27 13:43:00,71.0,71.0,30.07,ESE,119,0.0,4.0,100,0.00,,,0.40,,2013-10-27 18:43:00,
2013-10-27 13:52:00,71.0,71.0,30.06,ENE,66,0.0,1.0,100,0.00,,,0.40,,2013-10-27 18:52:00,
2013-10-27 14:11:00,71.0,71.0,30.06,ENE,66,0.0,1.0,100,0.00,,,0.40,,2013-10-27 19:11:00,
2013-10-27 14:22:00,72.0,72.0,30.05,NE,42,0.0,1.0,99,0.00,,,0.40,,2013-10-27 19:22:00,
2013-10-27 14:42:00,72.0,72.0,30.05,SSW,213,0.0,2.0,99,0.00,,,0.40,,2013-10-27 19:42:00,
2013-10-27 14:52:00,72.0,71.0,30.04,SSW,213,0.0,1.0,98,0.00,,,0.40,,2013-10-27 19:52:00,
2013-10-27 15:12:00,72.0,71.0,30.04,NNE,19,0.0,2.0,96,0.00,,,0.40,,2013-10-27 20:12:00,
2013-10-27 15:22:00,73.0,70.0,30.04,WNW,287,0.0,1.0,90,0.00,,,0.40,,2013-10-27 20:22:00,
2013-10-27 15:43:00,73.0,70.0,30.04,WNW,287,0.0,1.0,90,0.00,,,0.40,,2013-10-27 20:43:00,
2013-10-27 15:52:00,73.0,70.0,30.03,SE,124,0.0,1.0,90,0.00,,,0.40,,2013-10-27 20:52:00,
2013-10-27 16:11:00,73.0,70.0,30.03,ESE,123,0.0,1.0,89,0.00,,,0.40,,2013-10-27 21:11:00,
2013-10-27 16:21:00,73.0,70.0,30.03,ENE,65,0.0,1.0,90,0.00,,,0.40,,2013-10-27 21:21:00,
2013-10-27 16:43:00,73.0,70.0,30.03,ENE,65,0.0,0.0,89,0.00,,,0.40,,2013-10-27 21:43:00,
2013-10-27 16:54:00,74.0,71.0,30.03,ENE,64,0.0,1.0,90,0.00,,,0.40,,2013-10-27 21:54:00,
2013-10-27 17:13:00,74.0,71.0,30.03,ESE,121,0.0,2.0,89,0.00,,,0.40,,2013-10-27 22:13:00,
2013-10-27 17:24:00,73.0,69.0,30.03,ESE,121,0.0,0.0,87,0.00,,,0.40,,2013-10-27 22:24:00,
2013-10-27 17:43:00,73.0,69.0,30.03,ESE,121,0.0,0.0,88,0.00,,,0.40,,2013-10-27 22:43:00,
2013-10-27 17:54:00,71.0,68.0,30.02,ESE,121,0.0,0.0,89,0.00,,,0.40,,2013-10-27 22:54:00,
2013-10-27 18:12:00,71.0,68.0,30.02,ESE,121,0.0,0.0,90,0.00,,,0.40,,2013-10-27 23:12:00,
2013-10-27 18:22:00,70.0,68.0,30.02,ESE,121,0.0,0.0,92,0.00,,,0.40,,2013-10-27 23:22:00,
2013-10-27 18:42:00,69.0,67.0,30.02,ESE,121,0.0,0.0,92,0.00,,,0.40,,2013-10-27 23:42:00,
2013-10-27 18:52:00,69.0,67.0,30.02,ESE,121,0.0,0.0,93,0.00,,,0.40,,2013-10-27 23:52:00,
2013-10-27 19:11:00,68.0,66.0,30.03,ESE,121,0.0,0.0,94,0.00,,,0.40,,2013-10-28 00:11:00,
2013-10-27 19:22:00,67.0,65.0,30.03,ESE,121,0.0,0.0,94,0.00,,,0.40,,2013-10-28 00:22:00,
2013-10-27 19:32:00,67.0,65.0,30.03,ESE,121,0.0,0.0,94,0.00,,,0.40,,2013-10-28 00:32:00,
2013-10-27 19:43:00,67.0,65.0,30.03,ESE,121,0.0,0.0,94,0.00,,,0.40,,2013-10-28 00:43:00,
2013-10-27 19:52:00,66.0,65.0,30.04,ESE,121,0.0,0.0,95,0.00,,,0.40,,2013-10-28 00:52:00,
2013-10-27 20:12:00,66.0,65.0,30.04,ESE,121,0.0,0.0,95,0.00,,,0.40,,2013-10-28 01:12:00,
2013-10-27 20:21:00,66.0,65.0,30.05,ESE,121,0.0,0.0,95,0.00,,,0.40,,2013-10-28 01:21:00,
2013-10-27 20:52:00,65.0,64.0,30.06,ESE,121,0.0,0.0,95,0.00,,,0.40,,2013-10-28 01:52:00,
2013-10-27 21:12:00,64.0,63.0,30.06,ESE,121,0.0,0.0,96,0.00,,,0.40,,2013-10-28 02:12:00,
2013-10-27 21:22:00,64.0,63.0,30.06,ESE,121,0.0,0.0,96,0.00,,,0.40,,2013-10-28 02:22:00,
2013-10-27 21:42:00,64.0,63.0,30.06,ESE,121,0.0,0.0,96,0.00,,,0.40,,2013-10-28 02:42:00,
2013-10-27 21:53:00,64.0,63.0,30.06,ESE,121,0.0,0.0,96,0.00,,,0.40,,2013-10-28 02:53:00,
2013-10-27 22:11:00,63.0,62.0,30.06,ESE,121,0.0,0.0,96,0.00,,,0.40,,2013-10-28 03:11:00,
2013-10-27 22:22:00,63.0,62.0,30.07,ESE,121,0.0,0.0,96,0.00,,,0.40,,2013-10-28 03:22:00,
2013-10-27 22:44:00,63.0,62.0,30.07,ESE,121,0.0,0.0,96,0.00,,,0.40,,2013-10-28 03:44:00,
2013-10-27 22:54:00,62.0,61.0,30.08,ESE,121,0.0,0.0,96,0.00,,,0.40,,2013-10-28 03:54:00,
2013-10-27 23:13:00,62.0,61.0,30.07,ESE,121,0.0,0.0,97,0.00,,,0.40,,2013-10-28 04:13:00,
2013-10-27 23:23:00,62.0,61.0,30.08,ESE,121,0.0,0.0,97,0.00,,,0.40,,2013-10-28 04:23:00,
2013-10-27 23:43:00,63.0,62.0,30.07,ESE,121,0.0,0.0,97,0.00,,,0.40,,2013-10-28 04:43:00,
2013-10-27 23:53:00,63.0,62.0,30.08,ESE,121,0.0,0.0,97,0.00,,,0.40,,2013-10-28 04:53:00,